Katowice, Poland

11:23 PM CET on March 25, 2017 (GMT +0100)
Pyrzowice

Weather History for EPKT - October, 2013

Change the Weather History Date:

Saturday, October 12, 2013

  Actual Average Record
Temperature  
Mean Temperature 57 °F -  
Max Temperature 64 °F 49 °F 71 °F (2000)
Min Temperature 50 °F 35 °F 26 °F (2012)
Degree Days  
Heating Degree Days 8    
Growing Degree Days 7 (Base 50)    
Moisture  
Dew Point 52 °F    
Average Humidity 87    
Maximum Humidity 100    
Minimum Humidity 68    
Precipitation  
Precipitation 0.00 in - - ()
Sea Level Pressure  
Sea Level Pressure 30.14 in    
Wind  
Wind Speed 7 mph ()    
Max Wind Speed 14 mph    
Max Gust Speed -    
Visibility 3.0 miles    
Events Rain    
Averages and records for this station are not official NWS values.
T = Trace of Precipitation, MM = Missing Value Source: Averaged Metar Reports

Daily Weather History Graph

Daily Weather History Graph

Search for Another Location

Airport or City:

Trip Planner

Search our weather history database for the weather conditions in past years. The results will help you decide how hot, cold, wet, or windy it might be!

Date:

Astronomy

Oct. 12, 2013 Rise Set
Actual Time 7:01 AM CEST 5:58 PM CEST
Civil Twilight 6:28 AM CEST 6:31 PM CEST
Nautical Twilight 5:51 AM CEST 7:08 PM CEST
Astronomical Twilight 5:13 AM CEST 7:46 PM CEST
Moon 2:30 PM CEST (10/12) No Moon Set
Length of Visible Light 12h 02m
Length of Day
10h 57m
First Quarter, 55% of the Moon is Illuminated
Oct 12
First Quarter
Oct 19
Full
Oct 27
Last Quarter
Nov 3
New
Nov 10
First Quarter

Hourly Weather History & Observations

Time (CEST) Temp. Dew Point Humidity Pressure Visibility Wind Dir Wind Speed Gust Speed Precip Events Conditions
12:00 AM 57.2 °F 51.8 °F 82% 30.09 in - East 9.2 mph - N/A   Clear
12:30 AM 57.2 °F 51.8 °F 82% 30.09 in - East 9.2 mph - N/A   Clear
1:00 AM 57.2 °F 51.8 °F 82% 30.09 in - East 9.2 mph - N/A   Clear
1:30 AM 57.2 °F 51.8 °F 82% 30.12 in - ESE 6.9 mph - N/A   Clear
2:00 AM 55.4 °F 51.8 °F 88% 30.15 in - WSW 4.6 mph - N/A   Clear
2:30 AM 55.4 °F 51.8 °F 88% 30.15 in 3.1 mi West 5.8 mph - N/A Rain Rain
3:00 AM 55.4 °F 53.6 °F 94% 30.15 in 3.7 mi Variable 2.3 mph - N/A Rain Light Rain
3:30 AM 55.4 °F 53.6 °F 94% 30.15 in 1.9 mi Variable 2.3 mph - N/A Rain Light Rain
4:00 AM 53.6 °F 53.6 °F 100% 30.15 in 1.6 mi SE 3.5 mph - N/A   Mostly Cloudy
4:30 AM 53.6 °F 53.6 °F 100% 30.15 in 1.9 mi ENE 6.9 mph - N/A   Mostly Cloudy
5:00 AM 53.6 °F 51.8 °F 94% 30.15 in 2.2 mi East 4.6 mph - N/A   Partly Cloudy
5:30 AM 51.8 °F 51.8 °F 100% 30.15 in 2.2 mi East 6.9 mph - N/A   Mist
6:00 AM 51.8 °F 50.0 °F 94% 30.15 in 2.2 mi East 6.9 mph - N/A   Mist
6:30 AM 51.8 °F 50.0 °F 94% 30.15 in 1.6 mi ESE 4.6 mph - N/A   Mist
7:00 AM 51.8 °F 50.0 °F 94% 30.12 in 2.5 mi ESE 8.1 mph - N/A   Mist
7:30 AM 50.0 °F 50.0 °F 100% 30.12 in 2.2 mi East 6.9 mph - N/A   Mist
8:00 AM 51.8 °F 50.0 °F 94% 30.15 in 2.5 mi East 8.1 mph - N/A   Mist
8:30 AM 51.8 °F 50.0 °F 94% 30.15 in 2.5 mi ESE 8.1 mph - N/A   Mist
9:00 AM 53.6 °F 51.8 °F 94% 30.15 in 3.1 mi ESE 5.8 mph - N/A   Mist
9:30 AM 55.4 °F 51.8 °F 88% 30.15 in 3.7 mi ESE 4.6 mph - N/A   Unknown
10:00 AM 55.4 °F 51.8 °F 88% 30.15 in 3.7 mi ESE 6.9 mph - N/A   Unknown
10:30 AM 55.4 °F 51.8 °F 88% 30.15 in 4.3 mi East 9.2 mph - N/A   Unknown
11:00 AM 57.2 °F 51.8 °F 82% 30.15 in 5.0 mi East 9.2 mph - N/A   Unknown
11:30 AM 57.2 °F 51.8 °F 82% 30.15 in 5.0 mi East 13.8 mph - N/A   Unknown
12:00 PM 59.0 °F 53.6 °F 82% 30.18 in - East 13.8 mph - N/A   Clear
12:30 PM 60.8 °F 53.6 °F 77% 30.18 in - East 11.5 mph - N/A   Clear
1:00 PM 62.6 °F 53.6 °F 72% 30.18 in - East 10.4 mph - N/A   Clear
1:30 PM 62.6 °F 53.6 °F 72% 30.15 in - East 10.4 mph - N/A   Clear
2:00 PM 64.4 °F 53.6 °F 68% 30.15 in - East 12.7 mph - N/A   Clear
2:30 PM 62.6 °F 53.6 °F 72% 30.15 in - East 11.5 mph - N/A   Clear
3:00 PM 64.4 °F 53.6 °F 68% 30.15 in - East 10.4 mph - N/A   Clear
3:30 PM 64.4 °F 53.6 °F 68% 30.15 in - East 9.2 mph - N/A   Clear
4:00 PM 64.4 °F 53.6 °F 68% 30.15 in - East 11.5 mph - N/A   Clear
4:30 PM 62.6 °F 53.6 °F 72% 30.15 in - East 8.1 mph - N/A   Clear
5:00 PM 60.8 °F 53.6 °F 77% 30.12 in - ENE 11.5 mph - N/A   Clear
5:30 PM 59.0 °F 53.6 °F 82% 30.12 in 5.0 mi ENE 11.5 mph - N/A   Unknown
6:00 PM 57.2 °F 53.6 °F 88% 30.12 in 5.0 mi ENE 9.2 mph - N/A   Unknown
6:30 PM 55.4 °F 51.8 °F 88% 30.15 in 3.7 mi ENE 9.2 mph - N/A   Unknown
7:00 PM 53.6 °F 51.8 °F 94% 30.15 in 3.1 mi East 9.2 mph - N/A   Mist
7:30 PM 53.6 °F 51.8 °F 94% 30.15 in 3.1 mi East 9.2 mph - N/A   Mist
8:00 PM 53.6 °F 51.8 °F 94% 30.15 in 3.1 mi East 11.5 mph - N/A   Mist
8:30 PM 53.6 °F 51.8 °F 94% 30.15 in 3.1 mi East 9.2 mph - N/A   Mist
9:00 PM 53.6 °F 51.8 °F 94% 30.15 in 3.1 mi East 9.2 mph - N/A   Mist
9:30 PM 53.6 °F 51.8 °F 94% 30.15 in 3.1 mi East 11.5 mph - N/A   Mist
10:00 PM 53.6 °F 51.8 °F 94% 30.15 in 3.1 mi East 10.4 mph - N/A   Mist
10:30 PM 51.8 °F 50.0 °F 94% 30.12 in 2.5 mi East 10.4 mph - N/A   Mist
11:00 PM 53.6 °F 51.8 °F 94% 30.12 in 2.2 mi East 10.4 mph - N/A   Mist
11:30 PM 51.8 °F 50.0 °F 94% 30.12 in 1.9 mi East 8.1 mph - N/A   Mist